Weather Roundup
Issued by NWS

Home | Current Version | Previous Version | Graphics & Text | Print | Product List | Glossary Off
Versions: 1 2 3 4 5 6 7 8 9 10 11 12 13 14 15 16 17 18 19 20 21 22 23 24 25 26 27 28 29 30 31 32 33 34 35 36 37 38 39 40 41 42 43 44 45 46 47 48 49 50

000
NZUS93 KARX 010610
HRRWXR

CURRENT HOURLY OBSERVATIONS ACROSS
MUCH OF THE UPPER MISSISSIPPI VALLEY
NATIONAL WEATHER SERVICE LA CROSSE WI
100 AM CDT MON SEP 01 2014


...SOUTHEAST MINNESOTA...


CITY           SKY/WX    TMP DP  RH WIND       PRES   REMARKS
ROCHESTER      FAIR      64  61  90 S14G22    29.73R
ROCHESTER/MAYO FAIR      64  62  95 S13G20    29.73R
WINONA         LGT RAIN  66  63  88 SW8G22    29.71R
AUSTIN         FAIR      63  63 100 SE7G16    29.68F
ALBERT LEA     FAIR      63  63 100 S5        29.69F
DODGE CENTER   FAIR      64  63  94 S10       29.71F
PRESTON        FAIR      63  63 100 S12G21    29.75S
OWATONNA       FAIR      64  63  94 SE5       29.70F
FARIBAULT      LGT RAIN  68  63  83 S7        29.70S
$$

...ELSEWHERE IN MINNESOTA...


CITY           SKY/WX    TMP DP  RH WIND       PRES   REMARKS
MINNEAPOLIS    LGT RAIN  65  65 100 SE9       29.66R
INTNL FALLS    MOCLDY    61  59  93 W5        29.59S
DULUTH         LGT RAIN  64  61  90 SW5       29.61F
RED WING       RAIN      68  66  94 SW8       29.68R
REDWOOD FALLS  CLOUDY    66  65  96 S6        29.66S
MANKATO        CLOUDY    64  61  88 S7        29.66F
WORTHINGTON    FAIR      64  63  94 NW6       29.68F
FAIRMONT       FAIR      63  57  82 SE6       29.69R
$$

...SOUTHWEST WISCONSIN...


CITY           SKY/WX    TMP DP  RH WIND       PRES   REMARKS
LA CROSSE      RAIN      68  63  84 S15       29.75R
PRAIRIE DU CHI RAIN      66  62  85 CALM      29.83F
BOSCOBEL       LGT RAIN  69  62  78 SW8       29.81R
LONE ROCK      MOCLDY    80  67  64 W16G29    29.80R
PLATTEVILLE    CLOUDY    71  62  74 W14G20    29.85R
FORT MC COY    LGT RAIN  70  59  66 SW10G22   29.77R
CAMP DOUGLAS   FAIR      77  68  74 SW24G32   29.77R
VIROQUA        CLOUDY    65  65 100 SW13G21   29.81R
WIS DELLS      FAIR      74  67  77 S10       29.78F
$$

...ELSEWHERE IN WISCONSIN...


CITY           SKY/WX    TMP DP  RH WIND       PRES   REMARKS
MILWAUKEE      FAIR      73  68  84 S8        29.83F
MADISON        FAIR      76  69  79 S12       29.80S
GREEN BAY      FAIR      68  66  93 SE8       29.78F
EAU CLAIRE     LGT RAIN  67  66  97 E7        29.65F
BLACK RVR FLS  LGT RAIN  71  62  73 SW9G20    29.72R
MEDFORD        CLOUDY    67  66  98 SE6       29.72F
WAUSAU         CLOUDY    70  67  90 SE7       29.73F
WIS RAPIDS     FAIR      74  67  78 S8        29.75S
MARSHFIELD     MOCLDY    72  67  84 S12       29.73F
RICE LAKE      LGT RAIN  66  64  93 E7        29.66F
$$

...NORTHEAST IOWA...


CITY           SKY/WX    TMP DP  RH WIND       PRES   REMARKS
WATERLOO       RAIN      65  63  93 SE16      29.76F
DUBUQUE        MOCLDY    69  61  75 NW14      29.84R
DECORAH        RAIN      64  63  94 S10       29.80F
MASON CITY     FAIR      63  63 100 SE14G21   29.71F
CHARLES CITY   LGT RAIN  64  63  94 SE9G33    29.74F
OELWEIN        LGT RAIN  64  64 100 SE12G18   29.86S
$$

...ELSEWHERE IN IOWA...


CITY           SKY/WX    TMP DP  RH WIND       PRES   REMARKS
DES MOINES     MOCLDY    74  60  61 S10G28    29.63F THUNDER
IOWA CITY      TSTM      67  66  97 NW22G32   29.87R FOG
FORT DODGE     CLOUDY    64  64 100 SE6       29.71R
MARSHALLTOWN   LGT RAIN  65  64  97 SE21      29.71F
CEDAR RAPIDS   TSTM      65  65 100 NW13      29.84F FOG
$$

...NORTHERN ILLINOIS...


CITY           SKY/WX    TMP DP  RH WIND       PRES   REMARKS
CHICAGO-OHARE  FAIR      74  67  78 S8        29.86F
DUPAGE         FAIR      73  70  90 S9        29.86F
CHICAGO-MIDWAY FAIR      77  71  82 S8        29.88S
MOLINE         FAIR      76  70  82 S13       29.80F
ROCKFORD       MOCLDY    73  68  84 S10       29.83F
STERLING       FAIR      73  70  88 SW3       29.83S
PEORIA         FAIR      75  70  84 S10       29.85F
$$

NOTE: "FAIR" INDICATES FEW OR NO CLOUDS BELOW 12,000 FEET WITH NO
SIGNIFICANT WEATHER AND/OR OBSTRUCTIONS TO VISIBILITY. WIND
SPEEDS ARE IN MILES-PER-HOUR.



USA.gov is the U.S. government's official web portal to all federal, state and local government web resources and services.